Regional Weather Roundup
Issued by NWS Kansas City/Pleasant Hill, MO

Home | Current Version | Previous Version | Graphics & Text | Print | Product List | Glossary Off
Versions: 1 2 3 4 5 6 7 8 9 10 11 12 13 14 15 16 17 18 19 20 21 22 23 24 25 26 27

000
ASUS43 KEAX 191210
RWREAX

WEATHER ROUNDUP FOR EASTERN KANSAS AND NORTHWEST MISSOURI
NATIONAL WEATHER SERVICE KANSAS CITY/PLEASANT HILL MO
600 AM CST MON FEB 19 2018

KSZ040-057-103>105-MOZ028-029-037-043-191300-
...KANSAS CITY METROPOLITAN AREA...

CITY           SKY/WX    TMP DP  RH WIND       PRES   REMARKS
K.C. INTL      CLOUDY    63  58  83 SW25G33   29.61R
6HR MIN TEMP:  52; 6HR MAX TEMP:  63; 6HR PCP: TRACE;

K.C. DOWNTOWN  CLOUDY    64  57  78 S18G26    29.61F
6HR MIN TEMP:  55; 6HR MAX TEMP:  65;

LEES SUMMIT    CLOUDY    61  60  97 S24G36    29.65R
6HR MIN TEMP:  52; 6HR MAX TEMP:  61;

OLATHE - IXD   CLOUDY    61  59  93 S18G25    29.65R
6HR MIN TEMP:  52; 6HR MAX TEMP:  61;

OLATHE - OJC   CLOUDY    59  59 100 S20G26    29.64R
6HR MIN TEMP:  52; 6HR MAX TEMP:  61;

LAWRENCE       CLOUDY    62  59  90 S15       29.60R

$$

MOZ001>008-011>017-020>025-030>033-038>040-044>046-053-054-191300-
...NORTHERN AND CENTRAL MISSOURI...

CITY           SKY/WX    TMP DP  RH WIND       PRES   REMARKS
ST. JOSEPH     CLOUDY    54  54 100 E3        29.61S FOG
6HR MIN TEMP:  52; 6HR MAX TEMP:  54; 6HR PCP:  0.07;

MOSBY          CLOUDY    63  57  82 S16G25    29.62S
WARRENSBURG    CLOUDY    61  57  88 S15G25    29.68S
WHITEMAN AFB   CLOUDY    63  58  84 S21G33    29.65R
6HR MIN TEMP:  52; 6HR MAX TEMP:  64; 6HR PCP:  0.05;

CLINTON        CLOUDY    61  55  82 S12       29.72S
SEDALIA        CLOUDY    62  58  86 S22G31    29.72S
6HR MIN TEMP:  54; 6HR MAX TEMP:  62;

WARSAW         NOT AVBL
CHILLICOTHE      N/A     53  52  96 CALM      29.66S
6HR MIN TEMP:  49; 6HR MAX TEMP:  53; 6HR PCP:  0.03;

KIRKSVILLE     FOG       47  47 100 SE7       29.69F VSB 3/4
6HR MIN TEMP:  46; 6HR MAX TEMP:  50; 6HR PCP:  0.13;


$$

MOZ041-047>049-056>058-063>065-088>090-097-191300-
...EASTERN AND SOUTHERN MISSOURI...

CITY           SKY/WX    TMP DP  RH WIND       PRES   REMARKS
ST. LOUIS INTL LGT RAIN  59  56  89 S14G30    29.84F
6HR MIN TEMP:  51; 6HR MAX TEMP:  59; 6HR PCP:  0.01;

SPIRIT OF STL  CLOUDY    60  56  86 S17G33    29.82F
COLUMBIA       CLOUDY    59  55  87 S20G30    29.75S
JEFFERSON CITY CLOUDY    59  54  83 S14       29.77F
ROLLA          CLOUDY    57  55  93 S18G28    29.82F
OSAGE BEACH    LGT RAIN  56  54  93 S13       29.79F
SPRINGFIELD    LGT RAIN  57  55  93 S16       29.81R
JOPLIN         TSTM      61  60  97 S24G35    29.77S
WEST PLAINS    FOG       53  53 100 S14       29.92F VSB 3/4

$$

IAZ060-094-KSZ022-034>040-054-083-096-NEZ052-066-093-191300-
...KANSAS...SOUTHEAST NEBRASKA AND IOWA...

CITY           SKY/WX    TMP DP  RH WIND       PRES   REMARKS
TOPEKA         CLOUDY    63  60  90 S8        29.60R
6HR MIN TEMP:  54; 6HR MAX TEMP:  63;

MANHATTAN      CLOUDY    39  33  79 N9G23     29.64R WCI  33
EMPORIA        CLOUDY    63  59  87 S18       29.62R
CHANUTE        CLOUDY    63  60  90 S29G37    29.68S
WICHITA        MOCLDY    63  60  90 SW21G36   29.61R
OMAHA          FRZ RAIN  29  27  92 N23G32    29.69R FOG     WCI  15
LINCOLN        FLURRIES  25  22  88 N25G35    29.74R WCI   9
FALLS CITY     CLOUDY    38  38 100 NW18      29.60R FOG     WCI  28
LAMONI         FOG       47  46  97 E8        29.63F VSB 3/4
DES MOINES     DRIZZLE   45  44  97 SE10G21   29.64F

$$





USA.gov is the U.S. government's official web portal to all federal, state and local government web resources and services.